Time,TemperatureF,DewpointF,PressureIn,WindDirection,WindDirectionDegrees,WindSpeedMPH,WindSpeedGustMPH,Humidity,HourlyPrecipIn,Conditions,Clouds,dailyrainin,SoftwareType,DateUTC
2013-05-13 00:00:00,60.3,29.5,30.12,SSW,204,0.0,0.0,31,0.00,,,0.00,Wunderground v.1.15,2013-05-13 06:00:00,
2013-05-13 00:05:00,59.8,29.1,30.12,SSW,204,0.0,0.0,31,0.00,,,0.00,Wunderground v.1.15,2013-05-13 06:05:00,
2013-05-13 00:10:00,59.4,28.7,30.12,SSW,204,0.0,0.0,31,0.00,,,0.00,Wunderground v.1.15,2013-05-13 06:10:00,
2013-05-13 00:15:00,59.1,28.5,30.12,SSW,204,0.0,0.0,31,0.00,,,0.00,Wunderground v.1.15,2013-05-13 06:15:00,
2013-05-13 00:20:00,59.0,29.2,30.12,SSW,204,0.0,0.0,32,0.00,,,0.00,Wunderground v.1.15,2013-05-13 06:20:00,
2013-05-13 00:25:00,58.9,29.8,30.12,SSW,204,0.0,0.0,33,0.00,,,0.00,Wunderground v.1.15,2013-05-13 06:25:00,
2013-05-13 00:30:00,58.5,28.7,30.12,SSW,204,0.0,4.0,32,0.00,,,0.00,Wunderground v.1.15,2013-05-13 06:30:00,
2013-05-13 00:35:00,58.3,29.3,30.12,SSW,204,0.0,4.0,33,0.00,,,0.00,Wunderground v.1.15,2013-05-13 06:35:00,
2013-05-13 00:40:00,58.1,29.1,30.13,SSW,204,0.0,0.0,33,0.00,,,0.00,Wunderground v.1.15,2013-05-13 06:40:00,
2013-05-13 00:45:00,57.9,29.7,30.13,SSW,204,0.0,0.0,34,0.00,,,0.00,Wunderground v.1.15,2013-05-13 06:45:00,
2013-05-13 00:50:00,57.7,28.8,30.12,SSW,204,0.0,0.0,33,0.00,,,0.00,Wunderground v.1.15,2013-05-13 06:50:00,
2013-05-13 00:55:00,57.3,29.1,30.12,SSW,204,0.0,0.0,34,0.00,,,0.00,Wunderground v.1.15,2013-05-13 06:55:00,
2013-05-13 01:00:00,57.0,28.9,30.13,SSW,204,0.0,0.0,34,0.00,,,0.00,Wunderground v.1.15,2013-05-13 07:00:00,
2013-05-13 01:05:00,56.7,29.3,30.13,SSW,204,0.0,0.0,35,0.00,,,0.00,Wunderground v.1.15,2013-05-13 07:05:00,
2013-05-13 01:10:00,56.4,29.1,30.13,SSW,204,0.0,0.0,35,0.00,,,0.00,Wunderground v.1.15,2013-05-13 07:10:00,
2013-05-13 01:15:00,56.1,28.8,30.13,SSW,204,0.0,0.0,35,0.00,,,0.00,Wunderground v.1.15,2013-05-13 07:15:00,
2013-05-13 01:25:00,55.7,29.1,30.13,SSW,204,0.0,0.0,36,0.00,,,0.00,Wunderground v.1.15,2013-05-13 07:25:00,
2013-05-13 01:30:00,55.4,28.9,30.13,SSW,204,0.0,0.0,36,0.00,,,0.00,Wunderground v.1.15,2013-05-13 07:30:00,
2013-05-13 01:35:00,55.1,28.6,30.13,SSW,204,0.0,0.0,36,0.00,,,0.00,Wunderground v.1.15,2013-05-13 07:35:00,
2013-05-13 01:40:00,55.0,28.5,30.13,SSW,204,0.0,0.0,36,0.00,,,0.00,Wunderground v.1.15,2013-05-13 07:40:00,
2013-05-13 01:45:00,54.9,29.1,30.13,SSW,204,0.0,0.0,37,0.00,,,0.00,Wunderground v.1.15,2013-05-13 07:45:00,
2013-05-13 01:50:00,54.8,28.3,30.13,SSW,204,0.0,0.0,36,0.00,,,0.00,Wunderground v.1.15,2013-05-13 07:50:00,
2013-05-13 01:55:00,54.7,28.2,30.13,SSW,204,0.0,0.0,36,0.00,,,0.00,Wunderground v.1.15,2013-05-13 07:55:00,
2013-05-13 02:00:00,54.9,28.4,30.13,SSW,204,0.0,0.0,36,0.00,,,0.00,Wunderground v.1.15,2013-05-13 08:00:00,
2013-05-13 02:05:00,54.8,28.3,30.13,SSW,204,0.0,0.0,36,0.00,,,0.00,Wunderground v.1.15,2013-05-13 08:05:00,
2013-05-13 02:10:00,54.8,28.3,30.12,SSW,204,0.0,0.0,36,0.00,,,0.00,Wunderground v.1.15,2013-05-13 08:10:00,
2013-05-13 02:15:00,54.7,28.2,30.13,SSW,204,0.0,0.0,36,0.00,,,0.00,Wunderground v.1.15,2013-05-13 08:15:00,
2013-05-13 02:20:00,54.5,28.7,30.13,SSW,204,0.0,0.0,37,0.00,,,0.00,Wunderground v.1.15,2013-05-13 08:20:00,
2013-05-13 02:25:00,54.4,28.6,30.13,SSW,204,0.0,0.0,37,0.00,,,0.00,Wunderground v.1.15,2013-05-13 08:25:00,
2013-05-13 02:30:00,54.2,28.5,30.13,SSW,204,0.0,0.0,37,0.00,,,0.00,Wunderground v.1.15,2013-05-13 08:30:00,
2013-05-13 02:35:00,54.1,28.4,30.13,SSW,204,0.0,0.0,37,0.00,,,0.00,Wunderground v.1.15,2013-05-13 08:35:00,
2013-05-13 02:40:00,54.0,28.3,30.13,SSW,204,0.0,0.0,37,0.00,,,0.00,Wunderground v.1.15,2013-05-13 08:40:00,
2013-05-13 02:45:00,53.8,28.1,30.13,SSW,204,0.0,0.0,37,0.00,,,0.00,Wunderground v.1.15,2013-05-13 08:45:00,
2013-05-13 02:50:00,53.6,28.6,30.13,SSW,204,0.0,0.0,38,0.00,,,0.00,Wunderground v.1.15,2013-05-13 08:50:00,
2013-05-13 02:55:00,53.3,28.3,30.13,SSW,204,0.0,0.0,38,0.00,,,0.00,Wunderground v.1.15,2013-05-13 08:55:00,
2013-05-13 03:00:00,53.0,28.0,30.13,SSW,204,0.0,0.0,38,0.00,,,0.00,Wunderground v.1.15,2013-05-13 09:00:00,
2013-05-13 03:05:00,52.9,28.0,30.14,SSW,204,0.0,0.0,38,0.00,,,0.00,Wunderground v.1.15,2013-05-13 09:05:00,
2013-05-13 03:10:00,52.7,28.4,30.14,SSW,204,0.0,0.0,39,0.00,,,0.00,Wunderground v.1.15,2013-05-13 09:10:00,
2013-05-13 03:15:00,52.5,28.2,30.14,SSW,204,0.0,0.0,39,0.00,,,0.00,Wunderground v.1.15,2013-05-13 09:15:00,
2013-05-13 03:20:00,52.4,28.1,30.14,SSW,204,0.0,0.0,39,0.00,,,0.00,Wunderground v.1.15,2013-05-13 09:20:00,
2013-05-13 03:25:00,52.3,28.1,30.14,SSW,204,0.0,0.0,39,0.00,,,0.00,Wunderground v.1.15,2013-05-13 09:25:00,
2013-05-13 03:30:00,52.2,28.6,30.14,SSW,204,0.0,0.0,40,0.00,,,0.00,Wunderground v.1.15,2013-05-13 09:30:00,
2013-05-13 03:40:00,52.2,28.6,30.13,SSW,204,0.0,0.0,40,0.00,,,0.00,Wunderground v.1.15,2013-05-13 09:40:00,
2013-05-13 03:45:00,52.3,28.7,30.13,SSW,204,0.0,0.0,40,0.00,,,0.00,Wunderground v.1.15,2013-05-13 09:45:00,
2013-05-13 03:50:00,52.1,28.5,30.14,SSW,204,0.0,0.0,40,0.00,,,0.00,Wunderground v.1.15,2013-05-13 09:50:00,
2013-05-13 03:55:00,52.0,28.4,30.14,SSW,204,0.0,0.0,40,0.00,,,0.00,Wunderground v.1.15,2013-05-13 09:55:00,
2013-05-13 04:05:00,52.4,28.1,30.14,SSW,204,0.0,0.0,39,0.00,,,0.00,Wunderground v.1.15,2013-05-13 10:05:00,
2013-05-13 04:10:00,52.6,28.3,30.14,SSW,204,0.0,0.0,39,0.00,,,0.00,Wunderground v.1.15,2013-05-13 10:10:00,
2013-05-13 04:15:00,52.7,27.8,30.14,SSW,204,0.0,0.0,38,0.00,,,0.00,Wunderground v.1.15,2013-05-13 10:15:00,
2013-05-13 04:25:00,52.4,28.1,30.14,SSW,204,0.0,0.0,39,0.00,,,0.00,Wunderground v.1.15,2013-05-13 10:25:00,
2013-05-13 04:30:00,52.3,28.1,30.14,SSW,204,0.0,0.0,39,0.00,,,0.00,Wunderground v.1.15,2013-05-13 10:30:00,
2013-05-13 04:35:00,52.1,27.9,30.14,SSW,204,0.0,0.0,39,0.00,,,0.00,Wunderground v.1.15,2013-05-13 10:35:00,
2013-05-13 04:40:00,51.8,28.2,30.14,SSW,204,0.0,0.0,40,0.00,,,0.00,Wunderground v.1.15,2013-05-13 10:40:00,
2013-05-13 04:45:00,51.4,27.9,30.14,SSW,204,0.0,0.0,40,0.00,,,0.00,Wunderground v.1.15,2013-05-13 10:45:00,
2013-05-13 04:50:00,51.2,28.3,30.14,SSW,204,0.0,0.0,41,0.00,,,0.00,Wunderground v.1.15,2013-05-13 10:50:00,
2013-05-13 04:55:00,51.0,29.3,30.14,SSW,204,0.0,0.0,43,0.00,,,0.00,Wunderground v.1.15,2013-05-13 10:55:00,
2013-05-13 05:00:00,50.9,28.0,30.14,SSW,204,0.0,0.0,41,0.00,,,0.00,Wunderground v.1.15,2013-05-13 11:00:00,
2013-05-13 05:05:00,50.6,28.9,30.14,SSW,204,0.0,0.0,43,0.00,,,0.00,Wunderground v.1.15,2013-05-13 11:05:00,
2013-05-13 05:10:00,50.4,28.1,30.14,SSW,204,0.0,0.0,42,0.00,,,0.00,Wunderground v.1.15,2013-05-13 11:10:00,
2013-05-13 05:20:00,49.9,28.3,30.14,SSW,204,0.0,0.0,43,0.00,,,0.00,Wunderground v.1.15,2013-05-13 11:20:00,
2013-05-13 05:25:00,49.9,28.3,30.14,SSW,204,0.0,0.0,43,0.00,,,0.00,Wunderground v.1.15,2013-05-13 11:25:00,
2013-05-13 05:30:00,49.9,28.8,30.14,SSW,204,0.0,0.0,44,0.00,,,0.00,Wunderground v.1.15,2013-05-13 11:30:00,
2013-05-13 05:35:00,49.9,28.3,30.14,SSW,204,0.0,0.0,43,0.00,,,0.00,Wunderground v.1.15,2013-05-13 11:35:00,
2013-05-13 05:40:00,49.9,28.3,30.13,SSW,204,0.0,0.0,43,0.00,,,0.00,Wunderground v.1.15,2013-05-13 11:40:00,
2013-05-13 05:45:00,49.7,28.1,30.13,SSW,204,0.0,0.0,43,0.00,,,0.00,Wunderground v.1.15,2013-05-13 11:45:00,
2013-05-13 05:50:00,49.6,28.0,30.14,SSW,204,0.0,0.0,43,0.00,,,0.00,Wunderground v.1.15,2013-05-13 11:50:00,
2013-05-13 05:55:00,49.5,27.9,30.14,SSW,204,0.0,0.0,43,0.00,,,0.00,Wunderground v.1.15,2013-05-13 11:55:00,
2013-05-13 06:00:00,49.2,27.6,30.15,SSW,204,0.0,0.0,43,0.00,,,0.00,Wunderground v.1.15,2013-05-13 12:00:00,
2013-05-13 06:05:00,49.2,27.6,30.15,SSW,204,0.0,0.0,43,0.00,,,0.00,Wunderground v.1.15,2013-05-13 12:05:00,
2013-05-13 06:10:00,49.1,28.1,30.15,SSW,204,0.0,0.0,44,0.00,,,0.00,Wunderground v.1.15,2013-05-13 12:10:00,
2013-05-13 06:15:00,49.2,29.3,30.15,SSW,204,0.0,0.0,46,0.00,,,0.00,Wunderground v.1.15,2013-05-13 12:15:00,
2013-05-13 06:20:00,49.7,28.6,30.15,SSW,204,0.0,0.0,44,0.00,,,0.00,Wunderground v.1.15,2013-05-13 12:20:00,
2013-05-13 06:25:00,49.8,29.3,30.16,SSW,204,0.0,0.0,45,0.00,,,0.00,Wunderground v.1.15,2013-05-13 12:25:00,
2013-05-13 06:35:00,49.9,28.8,30.16,SSW,204,0.0,0.0,44,0.00,,,0.00,Wunderground v.1.15,2013-05-13 12:35:00,
2013-05-13 06:40:00,49.9,28.8,30.17,SSW,204,0.0,0.0,44,0.00,,,0.00,Wunderground v.1.15,2013-05-13 12:40:00,
2013-05-13 06:45:00,50.0,28.9,30.17,SSW,204,0.0,0.0,44,0.00,,,0.00,Wunderground v.1.15,2013-05-13 12:45:00,
2013-05-13 06:50:00,50.2,29.1,30.17,SSW,204,0.0,0.0,44,0.00,,,0.00,Wunderground v.1.15,2013-05-13 12:50:00,
2013-05-13 06:55:00,50.3,29.2,30.17,SSW,204,0.0,0.0,44,0.00,,,0.00,Wunderground v.1.15,2013-05-13 12:55:00,
2013-05-13 07:00:00,50.5,29.9,30.17,SSW,204,0.0,0.0,45,0.00,,,0.00,Wunderground v.1.15,2013-05-13 13:00:00,
2013-05-13 07:05:00,50.7,30.1,30.17,SSW,204,0.0,0.0,45,0.00,,,0.00,Wunderground v.1.15,2013-05-13 13:05:00,
2013-05-13 07:10:00,50.9,30.3,30.17,SSW,204,0.0,0.0,45,0.00,,,0.00,Wunderground v.1.15,2013-05-13 13:10:00,
2013-05-13 07:15:00,51.3,31.7,30.18,SSW,204,0.0,0.0,47,0.00,,,0.00,Wunderground v.1.15,2013-05-13 13:15:00,
2013-05-13 07:20:00,51.7,32.1,30.18,SSW,204,0.0,0.0,47,0.00,,,0.00,Wunderground v.1.15,2013-05-13 13:20:00,
2013-05-13 07:25:00,52.3,32.6,30.18,SSW,204,0.0,0.0,47,0.00,,,0.00,Wunderground v.1.15,2013-05-13 13:25:00,
2013-05-13 07:30:00,53.0,33.3,30.18,SSW,204,0.0,3.0,47,0.00,,,0.00,Wunderground v.1.15,2013-05-13 13:30:00,
2013-05-13 07:35:00,54.0,33.1,30.18,SSW,204,0.0,3.0,45,0.00,,,0.00,Wunderground v.1.15,2013-05-13 13:35:00,
2013-05-13 07:40:00,55.4,30.8,30.18,SSW,204,0.0,0.0,39,0.00,,,0.00,Wunderground v.1.15,2013-05-13 13:40:00,
2013-05-13 07:45:00,57.1,29.7,30.18,SSW,204,0.0,0.0,35,0.00,,,0.00,Wunderground v.1.15,2013-05-13 13:45:00,
2013-05-13 07:50:00,59.0,29.9,30.18,SSW,204,0.0,0.0,33,0.00,,,0.00,Wunderground v.1.15,2013-05-13 13:50:00,
2013-05-13 08:00:00,61.9,30.1,30.18,SSW,204,0.0,0.0,30,0.00,,,0.00,Wunderground v.1.15,2013-05-13 14:00:00,
2013-05-13 08:05:00,62.7,29.1,30.18,SSW,199,1.0,1.0,28,0.00,,,0.00,Wunderground v.1.15,2013-05-13 14:05:00,
2013-05-13 08:10:00,63.3,29.6,30.18,SSW,203,1.0,1.0,28,0.00,,,0.00,Wunderground v.1.15,2013-05-13 14:10:00,
2013-05-13 08:15:00,63.8,30.9,30.18,SSW,203,1.0,1.0,29,0.00,,,0.00,Wunderground v.1.15,2013-05-13 14:15:00,
2013-05-13 08:20:00,64.3,29.6,30.18,SSW,211,1.0,2.0,27,0.00,,,0.00,Wunderground v.1.15,2013-05-13 14:20:00,
2013-05-13 08:25:00,64.6,29.8,30.18,SSW,213,1.0,4.0,27,0.00,,,0.00,Wunderground v.1.15,2013-05-13 14:25:00,
2013-05-13 08:35:00,65.3,29.5,30.18,SW,220,2.0,2.0,26,0.00,,,0.00,Wunderground v.1.15,2013-05-13 14:35:00,
2013-05-13 08:40:00,65.7,29.8,30.18,SSW,211,2.0,3.0,26,0.00,,,0.00,Wunderground v.1.15,2013-05-13 14:40:00,
2013-05-13 08:45:00,66.1,30.2,30.18,WSW,238,1.0,5.0,26,0.00,,,0.00,Wunderground v.1.15,2013-05-13 14:45:00,
2013-05-13 08:50:00,66.3,29.4,30.18,SSW,202,2.0,2.0,25,0.00,,,0.00,Wunderground v.1.15,2013-05-13 14:50:00,
2013-05-13 08:55:00,66.6,29.6,30.18,SSW,203,2.0,4.0,25,0.00,,,0.00,Wunderground v.1.15,2013-05-13 14:55:00,
2013-05-13 09:00:00,66.8,29.8,30.18,SSW,202,2.0,2.0,25,0.00,,,0.00,Wunderground v.1.15,2013-05-13 15:00:00,
2013-05-13 09:05:00,67.2,30.2,30.18,SSW,202,1.0,4.0,25,0.00,,,0.00,Wunderground v.1.15,2013-05-13 15:05:00,
2013-05-13 09:10:00,67.9,30.8,30.18,SSW,209,1.0,1.0,25,0.00,,,0.00,Wunderground v.1.15,2013-05-13 15:10:00,
2013-05-13 09:15:00,68.4,31.2,30.17,SW,215,1.0,3.0,25,0.00,,,0.00,Wunderground v.1.15,2013-05-13 15:15:00,
2013-05-13 09:20:00,68.3,30.1,30.17,SW,217,2.0,4.0,24,0.00,,,0.00,Wunderground v.1.15,2013-05-13 15:20:00,
2013-05-13 09:25:00,68.6,30.3,30.17,SSW,200,2.0,4.0,24,0.00,,,0.00,Wunderground v.1.15,2013-05-13 15:25:00,
2013-05-13 09:30:00,69.1,29.7,30.17,SSW,195,2.0,2.0,23,0.00,,,0.00,Wunderground v.1.15,2013-05-13 15:30:00,
2013-05-13 09:35:00,69.2,29.8,30.17,South,189,2.0,7.0,23,0.00,,,0.00,Wunderground v.1.15,2013-05-13 15:35:00,
2013-05-13 09:40:00,69.0,29.6,30.17,SSW,209,3.0,5.0,23,0.00,,,0.00,Wunderground v.1.15,2013-05-13 15:40:00,
2013-05-13 09:45:00,69.1,29.7,30.16,SSW,194,3.0,5.0,23,0.00,,,0.00,Wunderground v.1.15,2013-05-13 15:45:00,
2013-05-13 09:50:00,69.3,29.9,30.16,SSW,198,3.0,3.0,23,0.00,,,0.00,Wunderground v.1.15,2013-05-13 15:50:00,
2013-05-13 09:55:00,69.8,31.4,30.16,SSW,209,2.0,3.0,24,0.00,,,0.00,Wunderground v.1.15,2013-05-13 15:55:00,
2013-05-13 10:00:00,70.4,30.8,30.16,WNW,290,2.0,2.0,23,0.00,,,0.00,Wunderground v.1.15,2013-05-13 16:00:00,
2013-05-13 10:05:00,70.6,31.0,30.16,SSW,209,3.0,4.0,23,0.00,,,0.00,Wunderground v.1.15,2013-05-13 16:05:00,
2013-05-13 10:10:00,70.4,30.8,30.16,South,173,4.0,4.0,23,0.00,,,0.00,Wunderground v.1.15,2013-05-13 16:10:00,
2013-05-13 10:15:00,70.5,30.9,30.16,SSE,167,3.0,4.0,23,0.00,,,0.00,Wunderground v.1.15,2013-05-13 16:15:00,
2013-05-13 10:20:00,70.9,30.1,30.16,West,260,3.0,3.0,22,0.00,,,0.00,Wunderground v.1.15,2013-05-13 16:20:00,
2013-05-13 10:25:00,71.0,31.3,30.16,SSW,194,2.0,3.0,23,0.00,,,0.00,Wunderground v.1.15,2013-05-13 16:25:00,
2013-05-13 10:30:00,71.5,30.6,30.16,South,191,2.0,5.0,22,0.00,,,0.00,Wunderground v.1.15,2013-05-13 16:30:00,
2013-05-13 10:35:00,71.6,30.7,30.16,SW,226,3.0,7.0,22,0.00,,,0.00,Wunderground v.1.15,2013-05-13 16:35:00,
2013-05-13 10:40:00,71.7,30.8,30.16,South,185,3.0,4.0,22,0.00,,,0.00,Wunderground v.1.15,2013-05-13 16:40:00,
2013-05-13 10:45:00,71.9,31.0,30.16,SSW,205,3.0,4.0,22,0.00,,,0.00,Wunderground v.1.15,2013-05-13 16:45:00,
2013-05-13 10:50:00,72.6,30.4,30.15,SE,140,3.0,3.0,21,0.00,,,0.00,Wunderground v.1.15,2013-05-13 16:50:00,
2013-05-13 10:55:00,73.4,31.1,30.15,South,181,2.0,3.0,21,0.00,,,0.00,Wunderground v.1.15,2013-05-13 16:55:00,
2013-05-13 11:00:00,73.7,31.3,30.15,SSW,213,3.0,5.0,21,0.00,,,0.00,Wunderground v.1.15,2013-05-13 17:00:00,
2013-05-13 11:05:00,73.8,31.4,30.15,SSE,164,4.0,5.0,21,0.00,,,0.00,Wunderground v.1.15,2013-05-13 17:05:00,
2013-05-13 11:10:00,73.9,31.5,30.15,SE,133,3.0,3.0,21,0.00,,,0.00,Wunderground v.1.15,2013-05-13 17:10:00,
2013-05-13 11:15:00,74.1,31.6,30.15,SSW,202,2.0,3.0,21,0.00,,,0.00,Wunderground v.1.15,2013-05-13 17:15:00,
2013-05-13 11:20:00,74.5,32.0,30.15,SSW,211,3.0,4.0,21,0.00,,,0.00,Wunderground v.1.15,2013-05-13 17:20:00,
2013-05-13 11:25:00,75.0,32.4,30.14,South,191,3.0,4.0,21,0.00,,,0.00,Wunderground v.1.15,2013-05-13 17:25:00,
2013-05-13 11:30:00,75.6,31.7,30.14,SSW,202,2.0,6.0,20,0.00,,,0.00,Wunderground v.1.15,2013-05-13 17:30:00,
2013-05-13 11:35:00,75.8,30.6,30.14,South,187,2.0,6.0,19,0.00,,,0.00,Wunderground v.1.15,2013-05-13 17:35:00,
2013-05-13 11:40:00,76.2,32.2,30.14,SSW,200,2.0,2.0,20,0.00,,,0.00,Wunderground v.1.15,2013-05-13 17:40:00,
2013-05-13 11:45:00,76.6,31.2,30.13,South,190,3.0,10.0,19,0.00,,,0.00,Wunderground v.1.15,2013-05-13 17:45:00,
2013-05-13 11:50:00,76.3,31.0,30.13,SW,228,4.0,4.0,19,0.00,,,0.00,Wunderground v.1.15,2013-05-13 17:50:00,
2013-05-13 11:55:00,76.6,31.2,30.13,SSW,213,4.0,4.0,19,0.00,,,0.00,Wunderground v.1.15,2013-05-13 17:55:00,
2013-05-13 12:00:00,77.1,31.6,30.13,SSW,205,3.0,3.0,19,0.00,,,0.00,Wunderground v.1.15,2013-05-13 18:00:00,
2013-05-13 12:05:00,77.7,32.1,30.12,South,188,2.0,3.0,19,0.00,,,0.00,Wunderground v.1.15,2013-05-13 18:05:00,
2013-05-13 12:10:00,77.7,30.8,30.12,SSW,212,3.0,4.0,18,0.00,,,0.00,Wunderground v.1.15,2013-05-13 18:10:00,
2013-05-13 12:15:00,77.7,32.1,30.12,SW,222,3.0,6.0,19,0.00,,,0.00,Wunderground v.1.15,2013-05-13 18:15:00,
2013-05-13 12:20:00,78.4,31.4,30.11,SSW,194,3.0,4.0,18,0.00,,,0.00,Wunderground v.1.15,2013-05-13 18:20:00,
2013-05-13 12:25:00,79.2,32.0,30.11,SW,215,3.0,4.0,18,0.00,,,0.00,Wunderground v.1.15,2013-05-13 18:25:00,
2013-05-13 12:30:00,79.1,31.9,30.11,SSW,202,3.0,5.0,18,0.00,,,0.00,Wunderground v.1.15,2013-05-13 18:30:00,
2013-05-13 12:35:00,79.2,32.0,30.11,SSW,197,3.0,6.0,18,0.00,,,0.00,Wunderground v.1.15,2013-05-13 18:35:00,
2013-05-13 12:40:00,79.1,31.9,30.10,South,190,3.0,3.0,18,0.00,,,0.00,Wunderground v.1.15,2013-05-13 18:40:00,
2013-05-13 12:45:00,79.4,30.8,30.10,SW,226,3.0,7.0,17,0.00,,,0.00,Wunderground v.1.15,2013-05-13 18:45:00,
2013-05-13 12:50:00,79.4,30.8,30.10,SW,223,3.0,6.0,17,0.00,,,0.00,Wunderground v.1.15,2013-05-13 18:50:00,
2013-05-13 12:55:00,79.9,29.7,30.10,SE,136,3.0,6.0,16,0.00,,,0.00,Wunderground v.1.15,2013-05-13 18:55:00,
2013-05-13 13:00:00,80.3,31.5,30.09,SW,215,2.0,4.0,17,0.00,,,0.00,Wunderground v.1.15,2013-05-13 19:00:00,
2013-05-13 13:05:00,80.8,31.9,30.09,SSW,199,2.0,4.0,17,0.00,,,0.00,Wunderground v.1.15,2013-05-13 19:05:00,
2013-05-13 13:10:00,81.2,30.7,30.09,SSW,211,2.0,2.0,16,0.00,,,0.00,Wunderground v.1.15,2013-05-13 19:10:00,
2013-05-13 13:15:00,81.3,30.8,30.09,SSW,210,2.0,4.0,16,0.00,,,0.00,Wunderground v.1.15,2013-05-13 19:15:00,
2013-05-13 13:20:00,81.3,30.8,30.08,SSW,202,3.0,3.0,16,0.00,,,0.00,Wunderground v.1.15,2013-05-13 19:20:00,
2013-05-13 13:25:00,82.0,31.4,30.08,SSW,207,2.0,6.0,16,0.00,,,0.00,Wunderground v.1.15,2013-05-13 19:25:00,
2013-05-13 13:30:00,82.1,29.8,30.08,WNW,298,3.0,10.0,15,0.00,,,0.00,Wunderground v.1.15,2013-05-13 19:30:00,
2013-05-13 13:35:00,82.1,29.8,30.08,SSW,207,3.0,10.0,15,0.00,,,0.00,Wunderground v.1.15,2013-05-13 19:35:00,
2013-05-13 13:40:00,82.3,30.0,30.07,SSW,208,3.0,3.0,15,0.00,,,0.00,Wunderground v.1.15,2013-05-13 19:40:00,
2013-05-13 13:45:00,82.7,30.3,30.07,West,275,2.0,3.0,15,0.00,,,0.00,Wunderground v.1.15,2013-05-13 19:45:00,
2013-05-13 13:50:00,82.9,30.5,30.07,SSW,199,3.0,4.0,15,0.00,,,0.00,Wunderground v.1.15,2013-05-13 19:50:00,
2013-05-13 13:55:00,82.2,29.9,30.07,SW,226,5.0,5.0,15,0.00,,,0.00,Wunderground v.1.15,2013-05-13 19:55:00,
2013-05-13 14:00:00,82.0,29.8,30.07,ENE,58,3.0,3.0,15,0.00,,,0.00,Wunderground v.1.15,2013-05-13 20:00:00,
2013-05-13 14:05:00,82.5,30.2,30.07,South,190,2.0,3.0,15,0.00,,,0.00,Wunderground v.1.15,2013-05-13 20:05:00,
2013-05-13 14:10:00,83.1,30.6,30.06,South,189,1.0,1.0,15,0.00,,,0.00,Wunderground v.1.15,2013-05-13 20:10:00,
2013-05-13 14:15:00,84.1,29.7,30.06,South,186,1.0,1.0,14,0.00,,,0.00,Wunderground v.1.15,2013-05-13 20:15:00,
2013-05-13 14:20:00,84.9,30.4,30.06,SSW,201,1.0,1.0,14,0.00,,,0.00,Wunderground v.1.15,2013-05-13 20:20:00,
2013-05-13 14:25:00,84.6,30.1,30.05,SSW,205,3.0,3.0,14,0.00,,,0.00,Wunderground v.1.15,2013-05-13 20:25:00,
2013-05-13 14:30:00,84.3,29.9,30.05,West,274,3.0,10.0,14,0.00,,,0.00,Wunderground v.1.15,2013-05-13 20:30:00,
2013-05-13 14:35:00,84.5,30.1,30.05,West,265,2.0,10.0,14,0.00,,,0.00,Wunderground v.1.15,2013-05-13 20:35:00,
2013-05-13 14:40:00,84.7,28.4,30.05,SW,225,3.0,3.0,13,0.00,,,0.00,Wunderground v.1.15,2013-05-13 20:40:00,
2013-05-13 14:45:00,84.5,30.1,30.05,SSW,212,4.0,7.0,14,0.00,,,0.00,Wunderground v.1.15,2013-05-13 20:45:00,
2013-05-13 14:50:00,84.3,29.9,30.05,West,278,4.0,4.0,14,0.00,,,0.00,Wunderground v.1.15,2013-05-13 20:50:00,
2013-05-13 14:55:00,84.2,28.0,30.04,SE,138,3.0,4.0,13,0.00,,,0.00,Wunderground v.1.15,2013-05-13 20:55:00,
2013-05-13 15:00:00,84.6,30.1,30.04,SSE,155,1.0,2.0,14,0.00,,,0.00,Wunderground v.1.15,2013-05-13 21:00:00,
2013-05-13 15:05:00,85.4,30.8,30.04,WNW,288,2.0,5.0,14,0.00,,,0.00,Wunderground v.1.15,2013-05-13 21:05:00,
2013-05-13 15:10:00,85.2,28.8,30.04,SSW,198,4.0,9.0,13,0.00,,,0.00,Wunderground v.1.15,2013-05-13 21:10:00,
2013-05-13 15:15:00,84.4,30.0,30.04,SSW,210,4.0,9.0,14,0.00,,,0.00,Wunderground v.1.15,2013-05-13 21:15:00,
2013-05-13 15:20:00,84.1,27.9,30.03,SSE,149,4.0,4.0,13,0.00,,,0.00,Wunderground v.1.15,2013-05-13 21:20:00,
2013-05-13 15:25:00,84.2,28.0,30.03,SSW,200,3.0,4.0,13,0.00,,,0.00,Wunderground v.1.15,2013-05-13 21:25:00,
2013-05-13 15:30:00,84.1,27.9,30.03,SSW,213,2.0,2.0,13,0.00,,,0.00,Wunderground v.1.15,2013-05-13 21:30:00,
2013-05-13 15:35:00,84.5,30.1,30.02,SW,215,2.0,2.0,14,0.00,,,0.00,Wunderground v.1.15,2013-05-13 21:35:00,
2013-05-13 15:40:00,85.0,30.4,30.02,SSW,192,2.0,4.0,14,0.00,,,0.00,Wunderground v.1.15,2013-05-13 21:40:00,
2013-05-13 15:45:00,85.0,28.6,30.02,South,174,3.0,4.0,13,0.00,,,0.00,Wunderground v.1.15,2013-05-13 21:45:00,
2013-05-13 15:50:00,84.5,28.2,30.01,SE,131,3.0,3.0,13,0.00,,,0.00,Wunderground v.1.15,2013-05-13 21:50:00,
2013-05-13 15:55:00,84.3,28.1,30.01,WSW,238,2.0,5.0,13,0.00,,,0.00,Wunderground v.1.15,2013-05-13 21:55:00,
2013-05-13 16:00:00,84.7,30.2,30.01,SSW,203,2.0,5.0,14,0.00,,,0.00,Wunderground v.1.15,2013-05-13 22:00:00,
2013-05-13 16:10:00,85.2,28.8,30.00,NW,317,3.0,3.0,13,0.00,,,0.00,Wunderground v.1.15,2013-05-13 22:10:00,
2013-05-13 16:15:00,85.5,29.0,30.00,SSW,199,3.0,3.0,13,0.00,,,0.00,Wunderground v.1.15,2013-05-13 22:15:00,
2013-05-13 16:20:00,85.4,28.9,30.00,SW,215,3.0,3.0,13,0.00,,,0.00,Wunderground v.1.15,2013-05-13 22:20:00,
2013-05-13 16:30:00,84.8,28.5,30.00,SW,227,3.0,3.0,13,0.00,,,0.00,Wunderground v.1.15,2013-05-13 22:30:00,
2013-05-13 16:35:00,84.7,28.4,29.99,SSW,213,2.0,3.0,13,0.00,,,0.00,Wunderground v.1.15,2013-05-13 22:35:00,
2013-05-13 16:40:00,84.2,28.0,29.99,SSE,161,2.0,2.0,13,0.00,,,0.00,Wunderground v.1.15,2013-05-13 22:40:00,
2013-05-13 16:50:00,84.3,28.1,29.99,SSW,200,1.0,1.0,13,0.00,,,0.00,Wunderground v.1.15,2013-05-13 22:50:00,
2013-05-13 16:55:00,84.3,28.1,29.98,SSW,194,2.0,4.0,13,0.00,,,0.00,Wunderground v.1.15,2013-05-13 22:55:00,
2013-05-13 17:00:00,83.9,27.8,29.99,SW,234,4.0,4.0,13,0.00,,,0.00,Wunderground v.1.15,2013-05-13 23:00:00,
2013-05-13 17:05:00,83.6,27.5,29.98,NNW,344,5.0,5.0,13,0.00,,,0.00,Wunderground v.1.15,2013-05-13 23:05:00,
2013-05-13 17:10:00,83.8,27.7,29.98,SW,221,3.0,3.0,13,0.00,,,0.00,Wunderground v.1.15,2013-05-13 23:10:00,
2013-05-13 17:15:00,83.9,27.8,29.98,SSW,203,1.0,5.0,13,0.00,,,0.00,Wunderground v.1.15,2013-05-13 23:15:00,
2013-05-13 17:20:00,83.6,27.5,29.98,SE,126,2.0,5.0,13,0.00,,,0.00,Wunderground v.1.15,2013-05-13 23:20:00,
2013-05-13 17:30:00,82.8,26.9,29.98,ESE,117,1.0,1.0,13,0.00,,,0.00,Wunderground v.1.15,2013-05-13 23:30:00,
2013-05-13 17:35:00,83.5,27.5,29.97,ESE,123,0.0,2.0,13,0.00,,,0.00,Wunderground v.1.15,2013-05-13 23:35:00,
2013-05-13 17:40:00,84.4,28.2,29.97,SW,226,1.0,2.0,13,0.00,,,0.00,Wunderground v.1.15,2013-05-13 23:40:00,
2013-05-13 17:45:00,84.5,26.3,29.97,SW,219,2.0,2.0,12,0.00,,,0.00,Wunderground v.1.15,2013-05-13 23:45:00,
2013-05-13 17:55:00,83.9,27.8,29.96,SSW,201,3.0,3.0,13,0.00,,,0.00,Wunderground v.1.15,2013-05-13 23:55:00,
2013-05-13 18:00:00,83.5,27.5,29.96,SSW,193,3.0,3.0,13,0.00,,,0.00,Wunderground v.1.15,2013-05-14 00:00:00,
2013-05-13 18:05:00,83.5,27.5,29.96,SW,219,2.0,7.0,13,0.00,,,0.00,Wunderground v.1.15,2013-05-14 00:05:00,
2013-05-13 18:10:00,83.4,27.4,29.96,SW,221,2.0,4.0,13,0.00,,,0.00,Wunderground v.1.15,2013-05-14 00:10:00,
2013-05-13 18:15:00,83.1,27.1,29.96,SSW,211,3.0,4.0,13,0.00,,,0.00,Wunderground v.1.15,2013-05-14 00:15:00,
2013-05-13 18:20:00,83.2,27.2,29.96,SSW,201,2.0,3.0,13,0.00,,,0.00,Wunderground v.1.15,2013-05-14 00:20:00,
2013-05-13 18:25:00,83.2,27.2,29.96,SW,215,2.0,3.0,13,0.00,,,0.00,Wunderground v.1.15,2013-05-14 00:25:00,
2013-05-13 18:30:00,83.0,27.1,29.95,SW,215,1.0,1.0,13,0.00,,,0.00,Wunderground v.1.15,2013-05-14 00:30:00,
2013-05-13 18:35:00,82.8,26.9,29.95,South,173,2.0,2.0,13,0.00,,,0.00,Wunderground v.1.15,2013-05-14 00:35:00,
2013-05-13 18:45:00,82.1,26.4,29.95,SSW,207,2.0,7.0,13,0.00,,,0.00,Wunderground v.1.15,2013-05-14 00:45:00,
2013-05-13 18:50:00,81.7,26.0,29.95,SSW,196,2.0,2.0,13,0.00,,,0.00,Wunderground v.1.15,2013-05-14 00:50:00,
2013-05-13 18:55:00,81.3,25.7,29.95,South,186,2.0,3.0,13,0.00,,,0.00,Wunderground v.1.15,2013-05-14 00:55:00,
2013-05-13 19:00:00,81.0,27.3,29.95,SSW,202,1.0,1.0,14,0.00,,,0.00,Wunderground v.1.15,2013-05-14 01:00:00,
2013-05-13 19:05:00,80.9,27.2,29.95,SSW,202,1.0,1.0,14,0.00,,,0.00,Wunderground v.1.15,2013-05-14 01:05:00,
2013-05-13 19:10:00,80.6,27.0,29.95,SSW,207,1.0,1.0,14,0.00,,,0.00,Wunderground v.1.15,2013-05-14 01:10:00,
2013-05-13 19:15:00,80.3,26.7,29.95,SSW,207,1.0,1.0,14,0.00,,,0.00,Wunderground v.1.15,2013-05-14 01:15:00,
2013-05-13 19:20:00,80.2,26.7,29.95,SSW,213,0.0,3.0,14,0.00,,,0.00,Wunderground v.1.15,2013-05-14 01:20:00,
2013-05-13 19:25:00,79.9,26.4,29.95,SSW,203,1.0,3.0,14,0.00,,,0.00,Wunderground v.1.15,2013-05-14 01:25:00,
2013-05-13 19:30:00,79.6,26.2,29.95,SSW,194,2.0,2.0,14,0.00,,,0.00,Wunderground v.1.15,2013-05-14 01:30:00,
2013-05-13 19:35:00,79.3,25.9,29.95,SSW,205,2.0,2.0,14,0.00,,,0.00,Wunderground v.1.15,2013-05-14 01:35:00,
2013-05-13 19:40:00,78.9,25.6,29.95,South,188,2.0,3.0,14,0.00,,,0.00,Wunderground v.1.15,2013-05-14 01:40:00,
2013-05-13 19:45:00,78.7,27.1,29.95,South,188,2.0,3.0,15,0.00,,,0.00,Wunderground v.1.15,2013-05-14 01:45:00,
2013-05-13 19:50:00,78.3,26.8,29.95,South,189,1.0,1.0,15,0.00,,,0.00,Wunderground v.1.15,2013-05-14 01:50:00,
2013-05-13 19:55:00,78.0,26.6,29.96,South,188,1.0,1.0,15,0.00,,,0.00,Wunderground v.1.15,2013-05-14 01:55:00,
2013-05-13 20:00:00,77.7,26.3,29.96,South,188,1.0,2.0,15,0.00,,,0.00,Wunderground v.1.15,2013-05-14 02:00:00,
2013-05-13 20:05:00,77.4,26.1,29.96,South,188,1.0,2.0,15,0.00,,,0.00,Wunderground v.1.15,2013-05-14 02:05:00,
2013-05-13 20:10:00,76.9,27.3,29.96,South,188,0.0,0.0,16,0.00,,,0.00,Wunderground v.1.15,2013-05-14 02:10:00,
2013-05-13 20:20:00,75.8,27.8,29.96,South,188,0.0,0.0,17,0.00,,,0.00,Wunderground v.1.15,2013-05-14 02:20:00,
2013-05-13 20:25:00,75.1,27.3,29.97,South,188,0.0,0.0,17,0.00,,,0.00,Wunderground v.1.15,2013-05-14 02:25:00,
2013-05-13 20:30:00,74.6,26.9,29.97,South,188,0.0,5.0,17,0.00,,,0.00,Wunderground v.1.15,2013-05-14 02:30:00,
2013-05-13 20:35:00,74.0,26.4,29.97,South,188,0.0,5.0,17,0.00,,,0.00,Wunderground v.1.15,2013-05-14 02:35:00,
2013-05-13 20:40:00,73.7,26.1,29.97,South,188,0.0,1.0,17,0.00,,,0.00,Wunderground v.1.15,2013-05-14 02:40:00,
2013-05-13 20:45:00,73.6,26.1,29.97,South,188,0.0,3.0,17,0.00,,,0.00,Wunderground v.1.15,2013-05-14 02:45:00,
2013-05-13 20:50:00,73.8,26.2,29.97,South,190,1.0,3.0,17,0.00,,,0.00,Wunderground v.1.15,2013-05-14 02:50:00,
2013-05-13 20:55:00,73.9,26.3,29.97,South,190,1.0,3.0,17,0.00,,,0.00,Wunderground v.1.15,2013-05-14 02:55:00,
2013-05-13 21:00:00,73.9,26.3,29.97,SSW,203,1.0,1.0,17,0.00,,,0.00,Wunderground v.1.15,2013-05-14 03:00:00,
2013-05-13 21:05:00,73.7,26.1,29.97,SSW,203,0.0,1.0,17,0.00,,,0.00,Wunderground v.1.15,2013-05-14 03:05:00,
2013-05-13 21:10:00,73.3,27.2,29.98,SSW,203,0.0,0.0,18,0.00,,,0.00,Wunderground v.1.15,2013-05-14 03:10:00,
2013-05-13 21:15:00,72.9,26.9,29.97,SSW,203,0.0,0.0,18,0.00,,,0.00,Wunderground v.1.15,2013-05-14 03:15:00,
2013-05-13 21:20:00,72.4,26.5,29.97,SSW,203,0.0,0.0,18,0.00,,,0.00,Wunderground v.1.15,2013-05-14 03:20:00,
2013-05-13 21:25:00,72.0,26.1,29.98,SSW,203,0.0,0.0,18,0.00,,,0.00,Wunderground v.1.15,2013-05-14 03:25:00,
2013-05-13 21:30:00,71.5,27.0,29.97,SSW,203,0.0,0.0,19,0.00,,,0.00,Wunderground v.1.15,2013-05-14 03:30:00,
2013-05-13 21:35:00,71.1,26.7,29.98,SSW,203,0.0,0.0,19,0.00,,,0.00,Wunderground v.1.15,2013-05-14 03:35:00,
2013-05-13 21:40:00,70.8,26.5,29.98,SSW,203,0.0,0.0,19,0.00,,,0.00,Wunderground v.1.15,2013-05-14 03:40:00,
2013-05-13 21:45:00,70.5,26.2,29.98,SSW,203,0.0,0.0,19,0.00,,,0.00,Wunderground v.1.15,2013-05-14 03:45:00,
2013-05-13 21:50:00,70.2,26.0,29.98,SSW,203,0.0,0.0,19,0.00,,,0.00,Wunderground v.1.15,2013-05-14 03:50:00,
2013-05-13 21:55:00,69.9,27.0,29.98,SSW,203,0.0,0.0,20,0.00,,,0.00,Wunderground v.1.15,2013-05-14 03:55:00,
2013-05-13 22:00:00,69.5,26.6,29.98,SSW,202,0.0,0.0,20,0.00,,,0.00,Wunderground v.1.15,2013-05-14 04:00:00,
2013-05-13 22:05:00,69.2,26.4,29.98,SSW,202,0.0,0.0,20,0.00,,,0.00,Wunderground v.1.15,2013-05-14 04:05:00,
2013-05-13 22:10:00,69.0,26.2,29.98,SSW,196,0.0,0.0,20,0.00,,,0.00,Wunderground v.1.15,2013-05-14 04:10:00,
2013-05-13 22:15:00,68.7,26.0,29.98,SSW,196,0.0,0.0,20,0.00,,,0.00,Wunderground v.1.15,2013-05-14 04:15:00,
2013-05-13 22:20:00,68.5,25.8,29.98,SSW,196,0.0,0.0,20,0.00,,,0.00,Wunderground v.1.15,2013-05-14 04:20:00,
2013-05-13 22:30:00,68.0,26.6,29.98,SSW,196,0.0,0.0,21,0.00,,,0.00,Wunderground v.1.15,2013-05-14 04:30:00,
2013-05-13 22:35:00,67.7,26.3,29.98,SSW,196,0.0,0.0,21,0.00,,,0.00,Wunderground v.1.15,2013-05-14 04:35:00,
2013-05-13 22:40:00,67.4,27.2,29.98,SSW,196,0.0,0.0,22,0.00,,,0.00,Wunderground v.1.15,2013-05-14 04:40:00,
2013-05-13 22:45:00,67.0,26.9,29.98,SSW,196,0.0,0.0,22,0.00,,,0.00,Wunderground v.1.15,2013-05-14 04:45:00,
2013-05-13 22:50:00,66.7,27.7,29.98,SSW,196,0.0,0.0,23,0.00,,,0.00,Wunderground v.1.15,2013-05-14 04:50:00,
2013-05-13 22:55:00,66.2,27.3,29.98,SSW,196,0.0,0.0,23,0.00,,,0.00,Wunderground v.1.15,2013-05-14 04:55:00,
2013-05-13 23:00:00,65.8,26.9,29.98,SSW,196,0.0,0.0,23,0.00,,,0.00,Wunderground v.1.15,2013-05-14 05:00:00,
2013-05-13 23:05:00,65.6,26.8,29.98,SSW,196,0.0,0.0,23,0.00,,,0.00,Wunderground v.1.15,2013-05-14 05:05:00,
2013-05-13 23:10:00,65.6,27.8,29.98,SSW,196,0.0,0.0,24,0.00,,,0.00,Wunderground v.1.15,2013-05-14 05:10:00,
2013-05-13 23:15:00,65.3,27.5,29.98,SSW,196,0.0,0.0,24,0.00,,,0.00,Wunderground v.1.15,2013-05-14 05:15:00,
2013-05-13 23:20:00,64.9,27.2,29.97,SSW,196,0.0,0.0,24,0.00,,,0.00,Wunderground v.1.15,2013-05-14 05:20:00,
2013-05-13 23:25:00,64.5,27.9,29.97,SSW,196,0.0,0.0,25,0.00,,,0.00,Wunderground v.1.15,2013-05-14 05:25:00,
2013-05-13 23:30:00,64.1,27.5,29.98,SSW,196,0.0,0.0,25,0.00,,,0.00,Wunderground v.1.15,2013-05-14 05:30:00,
2013-05-13 23:35:00,63.7,27.2,29.98,SSW,196,0.0,0.0,25,0.00,,,0.00,Wunderground v.1.15,2013-05-14 05:35:00,
2013-05-13 23:45:00,63.1,26.7,29.98,SSW,196,0.0,0.0,25,0.00,,,0.00,Wunderground v.1.15,2013-05-14 05:45:00,
2013-05-13 23:50:00,63.0,27.5,29.98,SSW,196,0.0,0.0,26,0.00,,,0.00,Wunderground v.1.15,2013-05-14 05:50:00,
2013-05-13 23:55:00,62.7,27.3,29.98,SSW,196,0.0,0.0,26,0.00,,,0.00,Wunderground v.1.15,2013-05-14 05:55:00,